This demonstration page uses our WeatherBlox Daily Observations layout. Learn more.

Left ArrowRight Arrow

41.12389, -100.76542

Hourly Observations for November 28, 2021

Temp ( °F °C ) Dew Point ( °F °C ) Humidity (%) Winds ( mph kmh ) Pressure ( in mb ) Visibility ( mi km ) Precip ( " mm )
12:53 am 00:53 Clear 26 -3.3 21 -6.1 81 81 WNW 3 6 30.29 1026 10 16 N/A
1:53 am 01:53 Clear 23 -5 19 -7.2 85 85 NNW 3 6 30.28 1025 10 16 N/A
2:53 am 02:53 Clear 25 -3.9 20 -6.7 81 81 N N/A 30.27 1025 10 16 N/A
3:53 am 03:53 Clear 22 -5.6 18 -7.8 85 85 N N/A 30.28 1026 10 16 N/A
4:53 am 04:53 Clear 20 -6.7 16 -8.9 85 85 N N/A 30.29 1026 10 16 N/A
5:53 am 05:53 Clear 21 -6.1 17 -8.3 85 85 E 3 6 30.29 1026 10 16 N/A
6:53 am 06:53 Clear 21 -6.1 17 -8.3 85 85 N N/A 30.28 1026 10 16 N/A
7:53 am 07:53 Sunny 22 -5.6 18 -7.8 85 85 N N/A 30.28 1025 10 16 N/A
8:53 am 08:53 Sunny 28 -2.2 23 -5 81 81 N N/A 30.25 1024 10 16 N/A
9:53 am 09:53 Sunny 35 1.7 27 -2.8 72 72 N N/A 30.22 1023 10 16 N/A
10:53 am 10:53 Sunny 42 5.6 29 -1.7 60 60 N N/A 30.20 1023 10 16 N/A
11:53 am 11:53 Sunny 51 10.6 28 -2.2 41 41 WSW 9 15 30.17 1022 10 16 N/A
12:53 pm 12:53 Sunny 55 12.8 29 -1.7 37 37 W 10 17 30.13 1020 10 16 N/A
1:53 pm 13:53 Sunny 57 13.9 29 -1.7 34 34 W 9 15 30.11 1020 10 16 N/A
2:53 pm 14:53 Sunny 61 16.1 29 -1.7 30 30 W 13 20 30.06 1018 10 16 N/A
3:53 pm 15:53 Sunny 60 15.6 29 -1.7 31 31 WSW 10 17 30.05 1018 10 16 N/A
4:53 pm 16:53 Sunny 56 13.3 30 -1.1 37 37 WSW 7 11 30.07 1018 10 16 N/A
5:53 pm 17:53 Clear 49 9.4 29 -1.7 46 46 N N/A 30.09 1019 10 16 N/A
6:53 pm 18:53 Clear 43 6.1 28 -2.2 56 56 NW 5 7 30.10 1019 10 16 N/A
7:53 pm 19:53 Clear 40 4.4 29 -1.7 65 65 NNW 7 11 30.10 1019 10 16 N/A
8:53 pm 20:53 Clear 36 2.2 27 -2.8 70 70 NW 3 6 30.09 1019 10 16 N/A
9:53 pm 21:53 Clear 34 1.1 27 -2.8 76 76 NW 7 11 30.08 1019 10 16 N/A
10:53 pm 22:53 Clear 33 0.6 27 -2.8 78 78 NW 5 7 30.06 1018 10 16 N/A
11:53 pm 23:53 Clear 31 -0.6 25 -3.9 79 79 NW 5 7 30.04 1017 10 16 N/A

Powered by AerisWeather